Skip Page Navigation
NASA JPL Caltech
NASA Logo - Jet Propulsion Laboratory + View the NASA Portal
+ Center for Near-Earth Object Studies
JPL Home Earth Solar System Stars & Galaxies Technology
JPL Solar System Dynamics
BODIES ORBITS EPHEMERIDES TOOLS PHYSICAL DATA DISCOVERY FAQ SITE MAP
JPL Small-Body Database Browser
Search: [ help ]  
160489 (2007 BV44)
Classification: Main-belt Asteroid          SPK-ID: 2160489
Ephemeris | Orbit Diagram | Orbital Elements | Mission Design | Physical Parameters | Discovery Circumstances | Close-Approach Data ]

[ show orbit diagram ]
Orbital Elements at Epoch 2459200.5 (2020-Dec-17.0) TDB
Reference: JPL 14 (heliocentric ecliptic J2000)
 Element Value Uncertainty (1-sigma)   Units 
e .07191911329723544 5.1174e-08  
a 2.34751434262273 1.2521e-08 au
q 2.178683192648761 1.2084e-07 au
i 4.967528031745848 5.8629e-06 deg
node 152.0351719284941 6.1213e-05 deg
peri 52.06378203547087 7.4466e-05 deg
M 243.3538338980652 4.4405e-05 deg
tp 2459626.175619472514
(2022-Feb-15.67561947)
0.0001628 TDB
period 1313.744190067839
3.60
1.051e-05
2.877e-08
d
yr
n .274025950197664 2.1923e-09 deg/d
Q 2.516345492596699 1.3421e-08 au
  Orbit Determination Parameters
   # obs. used (total)      236  
   data-arc span      10162 days (27.82 yr)  
   first obs. used      1993-03-24  
   last obs. used      2021-01-18  
   planetary ephem.      DE441  
   SB-pert. ephem.      SB441-N16  
   condition code      0  
   norm. resid. RMS      .57107  
   source      ORB  
   producer      Otto Matic  
   solution date      2021-Apr-13 20:01:33  

Additional Information
 Earth MOID = 1.17863 au 
 Jupiter MOID = 2.44311 au 
 T_jup = 3.551 
[ show covariance matrix ]

Ephemeris | Orbit Diagram | Orbital Elements | Mission Design | Physical Parameters | Discovery Circumstances | Close-Approach Data ]

Physical Parameter Table
Parameter Symbol Value Units Sigma Reference Notes
absolute magnitude H 17.3   n/a MPO396306  

160489 (2007 BV44)          Discovered 2007-Jan-25 by CSS at Catalina
Reference: 20070730/Numbers.arcLast Updated: 2007-08-06

[ show close-approach data ]
Alternate Designations
 2007 BV44 = 2000 CC149 = 2000 DX51 
Ephemeris | Orbit Diagram | Orbital Elements | Mission Design | Physical Parameters | Discovery Circumstances | Close-Approach Data ]
ABOUT SSD CREDITS/AWARDS PRIVACY/COPYRIGHT GLOSSARY LINKS
FirstGov 2021-Apr-17 04:01 UT
(server date/time)  
NASA Home Page
Site Manager:   Ryan S. Park
Webmaster  Alan B. Chamberlin